TRA7H EHRD-LGKR

Flight info

Callsign TRA7H
Flight time 2h 28m
Altitude 37000
Route LUNIX Z739 MISGO DCT DOJOH DCT DODEN DCT NEGIX DCT DINKU M867 XERUM DCT BAVAX DCT RADIZ DCT KUSIB DCT TAZ DCT RODON DCT LIMJA N732 PITAS
Aircraft B738/M-SDE2E3FGHIRWXY/LB1

Departure

Time 2026-05-06 18:39
Airport Rotterdam The Hague Airport (EHRD)

Arrival

Time 2026-05-06 21:08
Airport Corfu Ioannis Kapodistrias International Airport (LGKR)
Time Latitude Longitude Altitude Speed Heading
2026-05-06 18:01 51.95092 4.43427 0 ft 0 kts 326°
2026-05-06 18:31 51.95104 4.43415 1 ft 5 kts 331°
2026-05-06 18:31 51.95143 4.43440 1 ft 9 kts 53°
2026-05-06 18:32 51.95206 4.43474 1 ft 13 kts 331°
2026-05-06 18:32 51.95240 4.43386 0 ft 8 kts 246°
2026-05-06 18:32 51.95199 4.43290 0 ft 9 kts 237°
2026-05-06 18:32 51.95192 4.43272 0 ft 0 kts 237°
2026-05-06 18:34 51.95191 4.43270 0 ft 1 kts 237°
2026-05-06 18:35 51.95185 4.43256 0 ft 4 kts 237°
2026-05-06 18:35 51.95150 4.43157 0 ft 13 kts 245°
2026-05-06 18:35 51.95115 4.43038 1 ft 6 kts 244°
2026-05-06 18:35 51.95112 4.43028 0 ft 0 kts 248°
2026-05-06 18:37 51.95110 4.43017 0 ft 5 kts 252°
2026-05-06 18:37 51.95141 4.42915 0 ft 13 kts 321°
2026-05-06 18:37 51.95219 4.42861 1 ft 13 kts 30°
2026-05-06 18:38 51.95232 4.42884 2 ft 0 kts 52°
2026-05-06 18:38 51.95272 4.42982 1 ft 39 kts 57°
2026-05-06 18:38 51.95548 4.43670 -2 ft 105 kts 57°
2026-05-06 18:39 51.96048 4.44900 60 ft 150 kts 56°
2026-05-06 18:39 51.96593 4.46346 658 ft 153 kts 59°
2026-05-06 18:39 51.97134 4.47925 1239 ft 163 kts 59°
2026-05-06 18:40 51.98293 4.51236 2348 ft 190 kts 60°
2026-05-06 18:40 51.98963 4.53246 2565 ft 216 kts 62°
2026-05-06 18:40 51.99679 4.55548 2903 ft 238 kts 62°
2026-05-06 18:40 52.00719 4.57674 2999 ft 246 kts 34°
2026-05-06 18:41 52.02241 4.58954 3023 ft 248 kts 25°
2026-05-06 18:41 52.03814 4.60085 3013 ft 247 kts 25°
2026-05-06 18:41 52.05333 4.61392 3178 ft 248 kts 41°
2026-05-06 18:41 52.06542 4.63391 3917 ft 249 kts 46°
2026-05-06 18:42 52.07741 4.65452 4714 ft 252 kts 46°
2026-05-06 18:42 52.08966 4.67538 5469 ft 255 kts 46°
2026-05-06 18:42 52.10199 4.69627 6276 ft 258 kts 46°
2026-05-06 18:42 52.11465 4.71766 6871 ft 266 kts 45°
2026-05-06 18:43 52.12758 4.73951 7579 ft 269 kts 45°
2026-05-06 18:43 52.14062 4.76155 8321 ft 271 kts 45°
2026-05-06 18:43 52.15353 4.78448 8960 ft 279 kts 54°
2026-05-06 18:43 52.16140 4.81366 9633 ft 285 kts 71°
2026-05-06 18:44 52.16715 4.84482 10233 ft 293 kts 73°
2026-05-06 18:44 52.16885 4.87893 10376 ft 319 kts 100°
2026-05-06 18:44 52.16134 4.91411 10567 ft 340 kts 112°
2026-05-06 18:44 52.15135 4.95012 10736 ft 359 kts 114°
2026-05-06 18:45 52.14060 4.98790 10952 ft 375 kts 114°
2026-05-06 18:45 52.12966 5.02695 11448 ft 382 kts 114°
2026-05-06 18:45 52.11880 5.06665 12043 ft 386 kts 113°
2026-05-06 18:45 52.11166 5.09324 12439 ft 388 kts 113°
2026-05-06 18:46 52.09730 5.14751 13265 ft 394 kts 112°
2026-05-06 18:46 52.08652 5.18871 13890 ft 398 kts 112°
2026-05-06 18:46 52.07565 5.23035 14472 ft 401 kts 112°
2026-05-06 18:46 52.06472 5.27230 15075 ft 405 kts 112°
2026-05-06 18:47 52.05370 5.31453 15685 ft 408 kts 113°
2026-05-06 18:47 52.04257 5.35711 16283 ft 411 kts 113°
2026-05-06 18:47 52.03131 5.40010 16872 ft 415 kts 113°
2026-05-06 18:47 52.01996 5.44332 17478 ft 418 kts 112°
2026-05-06 18:48 52.00852 5.48683 18068 ft 421 kts 113°
2026-05-06 18:48 51.99696 5.53071 18566 ft 425 kts 113°
2026-05-06 18:48 51.98524 5.57506 19058 ft 428 kts 113°
2026-05-06 18:48 51.97346 5.61961 19556 ft 431 kts 113°
2026-05-06 18:49 51.96160 5.66431 20058 ft 433 kts 113°
2026-05-06 18:49 51.94964 5.70934 20535 ft 436 kts 114°
2026-05-06 18:49 51.93775 5.75404 21009 ft 439 kts 114°
2026-05-06 18:49 51.92545 5.80016 21465 ft 442 kts 114°
2026-05-06 18:50 51.91321 5.84598 21915 ft 445 kts 114°
2026-05-06 18:50 51.90087 5.89210 22345 ft 448 kts 114°
2026-05-06 18:50 51.88841 5.93858 22731 ft 452 kts 114°
2026-05-06 18:50 51.87557 5.98439 23134 ft 454 kts 119°
2026-05-06 18:51 51.85829 6.02718 23524 ft 455 kts 131°
2026-05-06 18:51 51.83688 6.06484 23903 ft 455 kts 135°
2026-05-06 18:51 51.81481 6.10165 24292 ft 456 kts 136°
2026-05-06 18:51 51.79276 6.13838 24656 ft 458 kts 135°
2026-05-06 18:52 51.77057 6.17554 25010 ft 459 kts 135°
2026-05-06 18:52 51.74842 6.21284 25354 ft 461 kts 135°
2026-05-06 18:52 51.72631 6.25024 25698 ft 462 kts 135°
2026-05-06 18:52 51.70416 6.28780 26014 ft 464 kts 135°
2026-05-06 18:53 51.68186 6.32566 26297 ft 467 kts 135°
2026-05-06 18:53 51.65944 6.36367 26575 ft 469 kts 135°
2026-05-06 18:53 51.63692 6.40182 26895 ft 470 kts 135°
2026-05-06 18:53 51.61439 6.43994 27276 ft 469 kts 135°
2026-05-06 18:54 51.59191 6.47788 27746 ft 467 kts 135°
2026-05-06 18:54 51.56955 6.51557 28234 ft 464 kts 135°
2026-05-06 18:54 51.54731 6.55299 28696 ft 462 kts 135°
2026-05-06 18:54 51.52513 6.59025 29107 ft 461 kts 135°
2026-05-06 18:55 51.50295 6.62743 29514 ft 460 kts 135°
2026-05-06 18:55 51.48080 6.66452 29981 ft 458 kts 135°
2026-05-06 18:55 51.45882 6.70127 30351 ft 457 kts 135°
2026-05-06 18:55 51.43683 6.73798 30639 ft 457 kts 135°
2026-05-06 18:56 51.41473 6.77481 30831 ft 460 kts 135°
2026-05-06 18:56 51.39252 6.81177 31089 ft 460 kts 135°
2026-05-06 18:56 51.37034 6.84864 31458 ft 458 kts 135°
2026-05-06 18:56 51.34829 6.88522 31902 ft 455 kts 135°
2026-05-06 18:57 51.32636 6.92159 32270 ft 453 kts 136°
2026-05-06 18:57 51.30446 6.95782 32525 ft 454 kts 136°
2026-05-06 18:57 51.28249 6.99411 32777 ft 455 kts 136°
2026-05-06 18:57 51.26049 7.03040 33081 ft 454 kts 136°
2026-05-06 18:58 51.23882 7.06611 33407 ft 453 kts 136°
2026-05-06 18:58 51.21662 7.10262 33709 ft 453 kts 136°
2026-05-06 18:58 51.19470 7.13864 33958 ft 453 kts 136°
2026-05-06 18:58 51.17263 7.17484 34180 ft 452 kts 136°
2026-05-06 18:59 51.15082 7.21057 34424 ft 452 kts 136°
2026-05-06 18:59 51.12920 7.24592 34614 ft 452 kts 136°
2026-05-06 18:59 51.10694 7.28226 34787 ft 453 kts 136°
2026-05-06 18:59 51.08493 7.31816 35006 ft 453 kts 136°
2026-05-06 19:00 51.07036 7.34189 35161 ft 452 kts 136°
2026-05-06 19:00 51.04097 7.38969 35414 ft 453 kts 136°
2026-05-06 19:00 51.02638 7.41339 35518 ft 453 kts 136°
2026-05-06 19:00 51.00428 7.44922 35693 ft 454 kts 136°
2026-05-06 19:01 50.97494 7.49674 35968 ft 454 kts 137°
2026-05-06 19:01 50.96009 7.52076 36082 ft 454 kts 137°
2026-05-06 19:01 50.93796 7.55650 36223 ft 455 kts 137°
2026-05-06 19:01 50.91580 7.59225 36457 ft 453 kts 137°
2026-05-06 19:02 50.89375 7.62777 36694 ft 452 kts 137°
2026-05-06 19:02 50.87166 7.66329 36830 ft 453 kts 137°
2026-05-06 19:02 50.84947 7.69891 36845 ft 457 kts 137°
2026-05-06 19:03 50.80465 7.77073 36848 ft 458 kts 137°
2026-05-06 19:03 50.75987 7.84230 36839 ft 458 kts 137°
2026-05-06 19:04 50.71512 7.91361 36830 ft 457 kts 137°
2026-05-06 19:04 50.67043 7.98463 36819 ft 455 kts 138°
2026-05-06 19:05 50.62613 8.05484 36831 ft 454 kts 138°
2026-05-06 19:05 50.58298 8.12733 36832 ft 455 kts 132°
2026-05-06 19:06 50.54380 8.20557 36824 ft 455 kts 131°
2026-05-06 19:06 50.50485 8.28390 36823 ft 454 kts 131°
2026-05-06 19:07 50.46554 8.36133 36803 ft 453 kts 132°
2026-05-06 19:07 50.42603 8.43846 36816 ft 453 kts 132°
2026-05-06 19:08 50.38657 8.51530 36818 ft 453 kts 132°
2026-05-06 19:08 50.34529 8.58932 36818 ft 450 kts 136°
2026-05-06 19:09 50.30223 8.66044 36827 ft 450 kts 137°
2026-05-06 19:09 50.25908 8.73141 36821 ft 450 kts 137°
2026-05-06 19:10 50.21605 8.80267 36823 ft 451 kts 136°
2026-05-06 19:10 50.17305 8.87406 36821 ft 452 kts 136°
2026-05-06 19:11 50.13002 8.94538 36826 ft 452 kts 136°
2026-05-06 19:11 50.08686 9.01671 36821 ft 452 kts 136°
2026-05-06 19:12 50.04365 9.08789 36827 ft 452 kts 136°
2026-05-06 19:12 50.00037 9.15899 36798 ft 453 kts 137°
2026-05-06 19:13 49.95708 9.22992 36820 ft 452 kts 137°
2026-05-06 19:13 49.91386 9.30053 36811 ft 450 kts 137°
2026-05-06 19:14 49.87077 9.37073 36797 ft 449 kts 137°
2026-05-06 19:14 49.82775 9.44061 36819 ft 448 kts 137°
2026-05-06 19:15 49.78479 9.51021 36805 ft 446 kts 137°
2026-05-06 19:15 49.74189 9.57952 36802 ft 445 kts 137°
2026-05-06 19:16 49.69907 9.64851 36821 ft 446 kts 137°
2026-05-06 19:16 49.65579 9.71803 37018 ft 450 kts 137°
2026-05-06 19:16 49.63411 9.75279 37212 ft 449 kts 137°
2026-05-06 19:17 49.61241 9.78754 37373 ft 450 kts 137°
2026-05-06 19:17 49.59069 9.82228 37492 ft 451 kts 137°
2026-05-06 19:17 49.56891 9.85706 37632 ft 451 kts 137°
2026-05-06 19:17 49.54709 9.89186 37795 ft 451 kts 137°
2026-05-06 19:18 49.52530 9.92658 37927 ft 451 kts 138°
2026-05-06 19:18 49.50345 9.96134 38098 ft 451 kts 138°
2026-05-06 19:18 49.48160 9.99604 38228 ft 452 kts 138°
2026-05-06 19:18 49.45975 10.03070 38342 ft 452 kts 138°
2026-05-06 19:19 49.43781 10.06544 38480 ft 452 kts 138°
2026-05-06 19:19 49.41586 10.10018 38582 ft 453 kts 138°
2026-05-06 19:19 49.39392 10.13483 38676 ft 453 kts 138°
2026-05-06 19:20 49.34988 10.20427 38809 ft 455 kts 138°
2026-05-06 19:20 49.30567 10.27380 38813 ft 456 kts 138°
2026-05-06 19:21 49.26145 10.34317 38849 ft 455 kts 139°
2026-05-06 19:21 49.21385 10.40530 38860 ft 445 kts 153°
2026-05-06 19:22 49.16060 10.45302 38862 ft 443 kts 154°
2026-05-06 19:22 49.10749 10.50036 38881 ft 441 kts 153°
2026-05-06 19:23 49.05477 10.54798 38882 ft 440 kts 153°
2026-05-06 19:23 49.00221 10.59563 38873 ft 439 kts 153°
2026-05-06 19:24 48.94984 10.64301 38876 ft 437 kts 154°
2026-05-06 19:24 48.89754 10.69019 38879 ft 437 kts 154°
2026-05-06 19:25 48.84556 10.73696 38879 ft 437 kts 154°
2026-05-06 19:25 48.79609 10.79121 38854 ft 445 kts 139°
2026-05-06 19:26 48.75441 10.86118 38852 ft 448 kts 136°
2026-05-06 19:26 48.71308 10.93183 38848 ft 448 kts 136°
2026-05-06 19:27 48.67145 11.00206 38841 ft 448 kts 137°
2026-05-06 19:27 48.62961 11.07196 38840 ft 448 kts 137°
2026-05-06 19:28 48.58765 11.14176 38830 ft 449 kts 137°
2026-05-06 19:28 48.54568 11.21141 38845 ft 448 kts 137°
2026-05-06 19:29 48.50370 11.28091 38861 ft 448 kts 137°
2026-05-06 19:29 48.46173 11.35023 38860 ft 447 kts 137°
2026-05-06 19:30 48.41988 11.41916 38865 ft 445 kts 137°
2026-05-06 19:30 48.37809 11.48781 38869 ft 444 kts 137°
2026-05-06 19:31 48.33652 11.55593 38875 ft 442 kts 137°
2026-05-06 19:31 48.27417 11.65778 38868 ft 440 kts 137°
2026-05-06 19:32 48.23096 11.72203 38890 ft 435 kts 142°
2026-05-06 19:32 48.18612 11.78280 38873 ft 434 kts 143°
2026-05-06 19:33 48.14128 11.84341 38875 ft 434 kts 143°
2026-05-06 19:33 48.09662 11.90419 38877 ft 434 kts 142°
2026-05-06 19:34 48.05204 11.96498 38872 ft 434 kts 142°
2026-05-06 19:34 48.00746 12.02569 38846 ft 434 kts 142°
2026-05-06 19:35 47.96279 12.08634 38868 ft 434 kts 142°
2026-05-06 19:35 47.91805 12.14694 38879 ft 435 kts 142°
2026-05-06 19:36 47.87316 12.20759 38878 ft 436 kts 142°
2026-05-06 19:36 47.82808 12.26835 38884 ft 438 kts 142°
2026-05-06 19:37 47.78283 12.32920 38874 ft 439 kts 143°
2026-05-06 19:37 47.74515 12.37975 38864 ft 440 kts 142°
2026-05-06 19:38 47.69193 12.45100 38860 ft 441 kts 142°
2026-05-06 19:38 47.64623 12.51201 38869 ft 442 kts 142°
2026-05-06 19:39 47.60252 12.57587 38865 ft 447 kts 136°
2026-05-06 19:39 47.56182 12.64584 38834 ft 449 kts 135°
2026-05-06 19:40 47.52150 12.71598 38868 ft 447 kts 135°
2026-05-06 19:40 47.48086 12.78561 38858 ft 446 kts 136°
2026-05-06 19:41 47.44002 12.85481 38868 ft 447 kts 136°
2026-05-06 19:41 47.39893 12.92405 38860 ft 450 kts 136°
2026-05-06 19:42 47.35760 12.99354 38840 ft 451 kts 136°
2026-05-06 19:42 47.31613 13.06310 38859 ft 453 kts 136°
2026-05-06 19:43 47.27442 13.13290 38870 ft 455 kts 136°
2026-05-06 19:43 47.23256 13.20278 38883 ft 455 kts 136°
2026-05-06 19:44 47.19061 13.27263 38892 ft 455 kts 136°
2026-05-06 19:44 47.14894 13.34183 38880 ft 455 kts 137°
2026-05-06 19:45 47.10705 13.41122 38886 ft 453 kts 137°
2026-05-06 19:45 47.06526 13.48027 38912 ft 452 kts 137°
2026-05-06 19:46 47.02358 13.54896 38909 ft 450 kts 137°
2026-05-06 19:46 46.98197 13.61734 38892 ft 449 kts 137°
2026-05-06 19:47 46.94708 13.67453 38900 ft 449 kts 136°
2026-05-06 19:47 46.90566 13.74228 38910 ft 450 kts 137°
2026-05-06 19:48 46.86350 13.81106 38918 ft 452 kts 137°
2026-05-06 19:48 46.82178 13.87898 38920 ft 452 kts 137°
2026-05-06 19:49 46.77956 13.94751 38911 ft 455 kts 137°
2026-05-06 19:49 46.73714 14.01621 38896 ft 457 kts 137°
2026-05-06 19:50 46.69448 14.08513 38905 ft 458 kts 137°
2026-05-06 19:50 46.65172 14.15402 38911 ft 459 kts 137°
2026-05-06 19:51 46.60885 14.22294 38916 ft 459 kts 137°
2026-05-06 19:51 46.56594 14.29173 38892 ft 459 kts 137°
2026-05-06 19:52 46.52311 14.36024 38894 ft 457 kts 137°
2026-05-06 19:52 46.48049 14.42824 38901 ft 454 kts 137°
2026-05-06 19:53 46.43801 14.49582 38901 ft 453 kts 137°
2026-05-06 19:53 46.39551 14.56323 38918 ft 453 kts 137°
2026-05-06 19:54 46.35300 14.63052 38929 ft 453 kts 137°
2026-05-06 19:54 46.31044 14.69774 38930 ft 454 kts 138°
2026-05-06 19:55 46.26777 14.76494 38921 ft 454 kts 138°
2026-05-06 19:55 46.22504 14.83208 38927 ft 455 kts 138°
2026-05-06 19:56 46.18209 14.89940 38899 ft 456 kts 137°
2026-05-06 19:56 46.13928 14.96632 38908 ft 458 kts 137°
2026-05-06 19:57 46.09601 15.03382 38917 ft 459 kts 137°
2026-05-06 19:57 46.05256 15.10141 38912 ft 461 kts 137°
2026-05-06 19:58 46.00899 15.16903 38923 ft 461 kts 137°
2026-05-06 19:58 45.96529 15.23669 38899 ft 462 kts 137°
2026-05-06 19:59 45.92148 15.30434 38902 ft 463 kts 138°
2026-05-06 19:59 45.87761 15.37193 38914 ft 463 kts 138°
2026-05-06 20:00 45.83365 15.43948 38913 ft 463 kts 138°
2026-05-06 20:00 45.78960 15.50698 38915 ft 464 kts 138°
2026-05-06 20:01 45.74552 15.57439 38901 ft 463 kts 138°
2026-05-06 20:01 45.70146 15.64161 38911 ft 463 kts 138°
2026-05-06 20:02 45.65735 15.70872 38913 ft 463 kts 138°
2026-05-06 20:02 45.61322 15.77568 38918 ft 462 kts 138°
2026-05-06 20:03 45.56943 15.84199 38904 ft 462 kts 138°
2026-05-06 20:03 45.52501 15.90907 38917 ft 461 kts 138°
2026-05-06 20:04 45.48120 15.97507 38919 ft 462 kts 138°
2026-05-06 20:04 45.43701 16.04149 38920 ft 462 kts 138°
2026-05-06 20:05 45.39277 16.10782 38894 ft 462 kts 138°
2026-05-06 20:05 45.34851 16.17401 38918 ft 462 kts 138°
2026-05-06 20:06 45.30419 16.24015 38922 ft 462 kts 138°
2026-05-06 20:06 45.25979 16.30624 38921 ft 463 kts 138°
2026-05-06 20:07 45.21531 16.37231 38929 ft 463 kts 138°
2026-05-06 20:07 45.17076 16.43832 38917 ft 463 kts 138°
2026-05-06 20:08 45.12210 16.49640 38927 ft 453 kts 154°
2026-05-06 20:08 45.06794 16.54210 38924 ft 454 kts 154°
2026-05-06 20:09 45.01359 16.58755 38938 ft 454 kts 154°
2026-05-06 20:09 44.95933 16.63344 38933 ft 455 kts 154°
2026-05-06 20:10 44.90513 16.67955 38934 ft 455 kts 154°
2026-05-06 20:10 44.85092 16.72566 38954 ft 455 kts 154°
2026-05-06 20:11 44.79654 16.77181 38952 ft 457 kts 154°
2026-05-06 20:11 44.74202 16.81795 38964 ft 458 kts 154°
2026-05-06 20:12 44.68735 16.86413 38952 ft 459 kts 154°
2026-05-06 20:12 44.63253 16.91031 38953 ft 460 kts 154°
2026-05-06 20:13 44.57766 16.95646 38972 ft 460 kts 154°
2026-05-06 20:13 44.52272 17.00254 38976 ft 461 kts 154°
2026-05-06 20:14 44.46795 17.04838 38997 ft 462 kts 154°
2026-05-06 20:14 44.41274 17.09449 38971 ft 463 kts 154°
2026-05-06 20:15 44.35746 17.14056 38987 ft 463 kts 154°
2026-05-06 20:15 44.30216 17.18654 39013 ft 462 kts 154°
2026-05-06 20:16 44.24689 17.23239 39003 ft 462 kts 155°
2026-05-06 20:16 44.19160 17.27816 39012 ft 462 kts 155°
2026-05-06 20:17 44.13632 17.32382 39003 ft 462 kts 155°
2026-05-06 20:17 44.08111 17.36933 39015 ft 461 kts 155°
2026-05-06 20:18 44.02591 17.41472 39016 ft 460 kts 155°
2026-05-06 20:18 43.97083 17.45991 39022 ft 460 kts 155°
2026-05-06 20:19 43.91568 17.50506 39025 ft 460 kts 155°
2026-05-06 20:19 43.86058 17.55005 39037 ft 460 kts 155°
2026-05-06 20:20 43.80540 17.59504 39019 ft 461 kts 155°
2026-05-06 20:20 43.75014 17.64000 39042 ft 461 kts 156°
2026-05-06 20:21 43.69483 17.68490 39055 ft 461 kts 156°
2026-05-06 20:21 43.63949 17.72970 39057 ft 461 kts 156°
2026-05-06 20:22 43.58410 17.77448 39028 ft 461 kts 155°
2026-05-06 20:22 43.52874 17.81913 39077 ft 462 kts 156°
2026-05-06 20:23 43.47301 17.86394 39067 ft 465 kts 156°
2026-05-06 20:23 43.41699 17.90892 39082 ft 467 kts 156°
2026-05-06 20:24 43.36113 17.95368 39085 ft 469 kts 156°
2026-05-06 20:24 43.30465 17.99886 39082 ft 470 kts 156°
2026-05-06 20:25 43.24808 18.04399 39069 ft 470 kts 156°
2026-05-06 20:25 43.19155 18.08900 39072 ft 469 kts 156°
2026-05-06 20:26 43.13514 18.13381 39057 ft 468 kts 156°
2026-05-06 20:26 43.07886 18.17841 39073 ft 467 kts 156°
2026-05-06 20:27 43.02269 18.22284 39073 ft 466 kts 156°
2026-05-06 20:27 42.96657 18.26712 39067 ft 466 kts 156°
2026-05-06 20:28 42.91056 18.31123 39072 ft 465 kts 156°
2026-05-06 20:28 42.85456 18.35524 39067 ft 464 kts 156°
2026-05-06 20:29 42.79861 18.39912 39084 ft 464 kts 156°
2026-05-06 20:29 42.74264 18.44291 39070 ft 464 kts 156°
2026-05-06 20:30 42.65849 18.50859 39075 ft 466 kts 156°
2026-05-06 20:31 42.60253 18.55214 39076 ft 467 kts 155°
2026-05-06 20:31 42.54604 18.59603 39100 ft 468 kts 156°
2026-05-06 20:32 42.48943 18.63993 39102 ft 469 kts 156°
2026-05-06 20:32 42.43266 18.68385 39102 ft 470 kts 155°
2026-05-06 20:33 42.37586 18.72771 39106 ft 470 kts 156°
2026-05-06 20:33 42.31899 18.77154 39078 ft 471 kts 155°
2026-05-06 20:34 42.26047 18.80962 39064 ft 461 kts 169°
2026-05-06 20:34 42.19868 18.83197 39072 ft 460 kts 171°
2026-05-06 20:35 42.14719 18.85005 39084 ft 460 kts 171°
2026-05-06 20:35 42.08525 18.87231 39084 ft 461 kts 171°
2026-05-06 20:36 42.02321 18.89497 39067 ft 462 kts 170°
2026-05-06 20:36 41.96122 18.91767 39075 ft 462 kts 170°
2026-05-06 20:37 41.89911 18.94036 39071 ft 462 kts 170°
2026-05-06 20:37 41.83707 18.96295 39064 ft 462 kts 170°
2026-05-06 20:38 41.77503 18.98549 39071 ft 462 kts 170°
2026-05-06 20:38 41.71303 19.00797 39072 ft 461 kts 170°
2026-05-06 20:39 41.65113 19.03037 39070 ft 461 kts 170°
2026-05-06 20:39 41.58929 19.05271 39066 ft 460 kts 170°
2026-05-06 20:40 41.52778 19.07491 39052 ft 450 kts 170°
2026-05-06 20:40 41.49793 19.08570 39057 ft 439 kts 171°
2026-05-06 20:40 41.46874 19.09621 39050 ft 433 kts 171°
2026-05-06 20:41 41.41100 19.12096 39077 ft 440 kts 165°
2026-05-06 20:41 41.35332 19.14999 39084 ft 447 kts 164°
2026-05-06 20:42 41.29474 19.17945 39080 ft 452 kts 164°
2026-05-06 20:42 41.23564 19.20854 39077 ft 455 kts 165°
2026-05-06 20:43 41.17655 19.23732 39060 ft 448 kts 165°
2026-05-06 20:43 41.11850 19.26549 39074 ft 442 kts 165°
2026-05-06 20:44 41.06068 19.29345 39080 ft 444 kts 165°
2026-05-06 20:44 41.00263 19.32145 39085 ft 450 kts 165°
2026-05-06 20:45 40.94329 19.35006 39075 ft 457 kts 164°
2026-05-06 20:45 40.88319 19.37901 39083 ft 462 kts 164°
2026-05-06 20:46 40.82363 19.40772 39055 ft 446 kts 165°
2026-05-06 20:46 40.76607 19.43537 39068 ft 438 kts 165°
2026-05-06 20:47 40.70905 19.46264 38689 ft 432 kts 164°
2026-05-06 20:47 40.68078 19.47614 37805 ft 434 kts 164°
2026-05-06 20:47 40.65198 19.48986 36469 ft 447 kts 164°
2026-05-06 20:47 40.62238 19.50396 35186 ft 458 kts 164°
2026-05-06 20:48 40.59217 19.51837 33984 ft 466 kts 164°
2026-05-06 20:48 40.56149 19.53299 32667 ft 471 kts 163°
2026-05-06 20:48 40.53053 19.54771 31410 ft 475 kts 163°
2026-05-06 20:48 40.49939 19.56247 30376 ft 474 kts 163°
2026-05-06 20:49 40.46870 19.57703 29478 ft 466 kts 163°
2026-05-06 20:49 40.43844 19.59138 28620 ft 458 kts 163°
2026-05-06 20:49 40.40868 19.60547 27762 ft 451 kts 163°
2026-05-06 20:49 40.37938 19.61933 26901 ft 444 kts 163°
2026-05-06 20:50 40.35037 19.63302 26144 ft 443 kts 163°
2026-05-06 20:50 40.32117 19.64675 25550 ft 451 kts 163°
2026-05-06 20:50 40.29115 19.66083 24914 ft 466 kts 163°
2026-05-06 20:50 40.26059 19.67510 24351 ft 461 kts 164°
2026-05-06 20:51 40.22999 19.68503 23402 ft 447 kts 175°
2026-05-06 20:51 40.19927 19.68680 22203 ft 438 kts 186°
2026-05-06 20:51 40.16924 19.68242 21014 ft 431 kts 194°
2026-05-06 20:51 40.14041 19.67308 19901 ft 424 kts 198°
2026-05-06 20:52 40.11202 19.66366 18878 ft 418 kts 197°
2026-05-06 20:52 40.08398 19.65464 17821 ft 412 kts 197°
2026-05-06 20:52 40.05634 19.64591 16792 ft 405 kts 197°
2026-05-06 20:52 40.02925 19.63742 15842 ft 397 kts 196°
2026-05-06 20:53 40.00290 19.62920 15430 ft 381 kts 196°
2026-05-06 20:53 39.97771 19.62136 15158 ft 364 kts 197°
2026-05-06 20:53 39.95333 19.61375 14556 ft 357 kts 197°
2026-05-06 20:53 39.92930 19.60623 13732 ft 354 kts 196°
2026-05-06 20:54 39.90541 19.59874 12806 ft 352 kts 196°
2026-05-06 20:54 39.88200 19.59142 11991 ft 349 kts 195°
2026-05-06 20:54 39.85857 19.58409 11203 ft 344 kts 195°
2026-05-06 20:54 39.83539 19.57686 10412 ft 341 kts 195°
2026-05-06 20:55 39.81240 19.56969 9625 ft 338 kts 195°
2026-05-06 20:55 39.78968 19.56261 8844 ft 333 kts 194°
2026-05-06 20:55 39.76734 19.55566 8245 ft 325 kts 194°
2026-05-06 20:55 39.74596 19.54902 8006 ft 307 kts 194°
2026-05-06 20:56 39.72549 19.54266 7753 ft 298 kts 194°
2026-05-06 20:56 39.70552 19.53646 7512 ft 292 kts 194°
2026-05-06 20:56 39.68591 19.53037 7269 ft 287 kts 194°
2026-05-06 20:56 39.66666 19.52439 7016 ft 282 kts 194°
2026-05-06 20:57 39.64773 19.51852 6773 ft 277 kts 194°
2026-05-06 20:57 39.62910 19.51274 6536 ft 273 kts 194°
2026-05-06 20:57 39.61071 19.50705 6279 ft 270 kts 193°
2026-05-06 20:57 39.59260 19.50145 6027 ft 266 kts 193°
2026-05-06 20:58 39.57441 19.49897 5742 ft 264 kts 172°
2026-05-06 20:58 39.55762 19.50786 5510 ft 262 kts 146°
2026-05-06 20:58 39.54492 19.52461 5265 ft 262 kts 126°
2026-05-06 20:58 39.53590 19.54494 5040 ft 259 kts 121°
2026-05-06 20:59 39.52748 19.56551 4791 ft 257 kts 120°
2026-05-06 20:59 39.51922 19.58590 4535 ft 255 kts 120°
2026-05-06 20:59 39.51098 19.60613 4279 ft 253 kts 120°
2026-05-06 20:59 39.50278 19.62616 4030 ft 251 kts 120°
2026-05-06 21:00 39.49458 19.64607 3787 ft 250 kts 120°
2026-05-06 21:00 39.48640 19.66587 3536 ft 249 kts 120°
2026-05-06 21:00 39.47816 19.68571 3292 ft 254 kts 120°
2026-05-06 21:00 39.46967 19.70615 3058 ft 261 kts 120°
2026-05-06 21:01 39.46104 19.72689 2914 ft 261 kts 120°
2026-05-06 21:01 39.45246 19.74749 2870 ft 259 kts 120°
2026-05-06 21:01 39.44396 19.76789 2863 ft 257 kts 121°
2026-05-06 21:01 39.43552 19.78813 2853 ft 253 kts 121°
2026-05-06 21:02 39.42726 19.80790 2846 ft 246 kts 120°
2026-05-06 21:02 39.41926 19.82705 2847 ft 238 kts 120°
2026-05-06 21:02 39.41150 19.84559 2850 ft 231 kts 120°
2026-05-06 21:02 39.40402 19.86358 2849 ft 224 kts 117°
2026-05-06 21:03 39.40125 19.88293 2857 ft 221 kts 82°
2026-05-06 21:03 39.40662 19.90169 2679 ft 233 kts 51°
2026-05-06 21:03 39.41981 19.91280 2539 ft 224 kts 17°
2026-05-06 21:03 39.43406 19.91788 2409 ft 206 kts 15°
2026-05-06 21:04 39.44741 19.92270 2260 ft 193 kts 15°
2026-05-06 21:04 39.45985 19.92726 2137 ft 180 kts 16°
2026-05-06 21:04 39.47170 19.93166 2043 ft 173 kts 16°
2026-05-06 21:04 39.48275 19.93579 1948 ft 160 kts 16°
2026-05-06 21:05 39.49328 19.93974 1817 ft 159 kts 16°
2026-05-06 21:05 39.50403 19.94372 1720 ft 161 kts 13°
2026-05-06 21:05 39.51488 19.94312 1587 ft 155 kts 341°
2026-05-06 21:05 39.52532 19.93941 1382 ft 156 kts 345°
2026-05-06 21:06 39.53579 19.93582 1170 ft 155 kts 343°
2026-05-06 21:06 39.54601 19.93188 961 ft 153 kts 340°
2026-05-06 21:06 39.55593 19.92679 769 ft 153 kts 339°
2026-05-06 21:06 39.56605 19.92254 596 ft 152 kts 343°
2026-05-06 21:07 39.57625 19.91912 408 ft 152 kts 347°
2026-05-06 21:07 39.58664 19.91625 178 ft 152 kts 348°
2026-05-06 21:07 39.59671 19.91356 17 ft 139 kts 349°
2026-05-06 21:07 39.60456 19.91148 5 ft 84 kts 348°
2026-05-06 21:08 39.60866 19.91039 5 ft 38 kts 349°
2026-05-06 21:08 39.61017 19.91006 4 ft 11 kts 12°
2026-05-06 21:08 39.61055 19.91085 6 ft 11 kts 76°
2026-05-06 21:08 39.61003 19.91135 7 ft 10 kts 167°
2026-05-06 21:09 39.60933 19.91155 7 ft 10 kts 168°
2026-05-06 21:09 39.60904 19.91162 8 ft 0 kts 168°
2026-05-06 21:09 39.60883 19.91171 6 ft 6 kts 149°
2026-05-06 21:09 39.60883 19.91227 7 ft 10 kts 84°
2026-05-06 21:10 39.60893 19.91283 7 ft 4 kts 79°
2026-05-06 21:10 39.60896 19.91305 7 ft 0 kts 79°